Find Starlink 31862

NORAD ID: 59786 Int'l Des: 2024-093 Owner: SPXS Country: US Constellation: starlink operational
LEOCIRCULAR

当前视图

正在加载3D地球...

About Starlink 31862

Starlink 31862 (NORAD 59786) is a starlink constellation satellite (v2 mini) launched May 18, 2024 by SPXS of US. It operates in LEO, CIRCULAR orbit with a mass of 730.00 kg.

即将过境

Passes for default location (London). Set your location on the main map for personalized predictions.

高度历史

Loading altitude history...

两行轨道根数

1 59786U 24093E 26235.78047216 .00000411 00000-0 24450-4 0 9991
2 59786 43.0027 344.9243 0001107 273.7341 86.3384 15.27578177128258
Epoch: Aug 23, 2026 • Age: 30 hours

当前状态

高度 485.2 km
远地点 / 近地点 N/A
速度 7.63 km/s
星下点 35.86°N, 42.9°E
发射日期 May 18, 2024
运行时间 2.2 years
类型 internet

技术详情

分类 Payload
质量 730.00 kg
干质量 700.00 kg
总质量 730.00 kg
长度 0.30 m
直径 4.10 m
跨度 29.00 m
形状 Box + pan
制造商 SPXS
平台类型 Starlink V2M
阶段状态 In Orbit
所有者/国家 SPXS/US

Most Searched